Overview Statistics Trail Chart Weather Telemetry Raw packets
 

This is the latest recevied weather packets stored in our database for station/object SP9MUF-14. If no packets are shown the sender has not sent any weather packets the latest 10 day(s).

<< 15 16 17 18 19 20 21 >>
Time Temp. Humidity Pressure Rain* Wind** Luminosity Snow
1788167052 26.67° C 47% 1013.6 hPa 0 mm - 537 W/m² -
1788166750 26.67° C 45% 1013.6 hPa 0 mm - 563 W/m² -
1788166448 27.78° C 44% 1013.6 hPa 0 mm - 457 W/m² -
1788165843 26.67° C 46% 1013.6 hPa 0 mm - 531 W/m² -
1788165541 26.67° C 45% 1013.6 hPa 0 mm - 501 W/m² -
1788165239 25.56° C 52% 1013.6 hPa 0 mm - 524 W/m² -
1788164937 25.56° C 55% 1014 hPa 0 mm - 507 W/m² -
1788164635 25.56° C 54% 1013.9 hPa 0 mm - 524 W/m² -
1788164333 25° C 57% 1014 hPa 0 mm - 548 W/m² -
1788164031 25° C 59% 1013.9 hPa 0 mm - 543 W/m² -
1788163729 23.89° C 59% 1014.1 hPa 0 mm - 426 W/m² -
1788163427 23.89° C 59% 1014.1 hPa 0 mm - 442 W/m² -
1788163125 23.89° C 61% 1014.2 hPa 0 mm - 427 W/m² -
1788162520 22.78° C 63% 1014.3 hPa 0 mm - 405 W/m² -
1788162218 22.78° C 66% 1014.4 hPa 0 mm - 399 W/m² -
1788161916 21.67° C 66% 1014.4 hPa 0 mm - 387 W/m² -
1788161614 21.67° C 68% 1014.5 hPa 0 mm - 373 W/m² -
1788161312 20.56° C 69% 1014.4 hPa 0 mm - 358 W/m² -
1788161012 20.56° C 70% 1014.5 hPa 0 mm - 339 W/m² -
1788160707 20.56° C 70% 1014.6 hPa 0 mm - 308 W/m² -
1788160405 20.56° C 71% 1014.7 hPa 0 mm - 77 W/m² -
1788159801 20.56° C 70% 1014.6 hPa 0 mm - 105 W/m² -
1788159499 20.56° C 70% 1014.7 hPa 0 mm - 103 W/m² -
1788159197 20° C 71% 1014.7 hPa 0 mm - 119 W/m² -
1788158895 20° C 72% 1014.8 hPa 0 mm - 110 W/m² -

* Rain latest hour (hover to see other rain measurements)
** Current wind speed in m/s (hover to see current wind gust speed)